Retour au catalogue

CZ-12 R/B

ActifLEO
NORAD 67531·ROCKET BODY·🇨🇳 China

Lancé Jan 19, 2026 depuis Wenchang Space Launch Site

Loading…

Prochains Passages (prochaines 24 heures)

TLE

FraisSource: Space-Track

Époque: Sep 14, 2026, 00:52 UTC

1 67531U 26013K   26257.03656118  .00000015  00000-0  85967-4 0  9991
2 67531  49.9918 279.4672 0068820 224.9518 134.5806 14.14485640 33646

Suivez CZ-12 R/B en temps réel avec AllMySat

Download on the App Store